Simultaneous Nadir Overpasses (SNOs) Predictions

Prediction of SNOs between METOP-B and NOAA-19 Satellite Orbit:

Table of predicted SNOs for the next 14.0 days since TLE Epoch: 6/8/2018
Index Date (METOP-B) Time (METOP-B) Lat,Lon (METOP-B) SZA (METOP-B ) Date (NOAA-19) Time (NOAA-19) Lat,Lon (NOAA-19) SZA (NOAA-19 ) Distance(km) Time Diff (sec)
1 06/17/2018 13:07:29 -78.41, 173.08 124.85 06/17/2018 13:06:25 -78.40, 173.02 124.88 2.55 64
2 06/17/2018 13:58:10 78.37, -19.81 55.10 06/17/2018 13:57:21 78.39, -19.70 55.12 3.20 49
3 06/17/2018 14:48:51 -78.40, 147.64 124.88 06/17/2018 14:48:26 -78.39, 147.55 124.89 2.09 25
4 06/17/2018 15:39:31 78.40, -45.03 55.13 06/17/2018 15:39:22 78.39, -45.17 55.11 3.13 9
5 06/17/2018 16:30:13 -78.38, 122.19 124.90 06/17/2018 16:30:27 -78.38, 122.08 124.90 2.65 14
6 06/17/2018 17:20:53 78.38, -70.48 55.10 06/17/2018 17:21:23 78.38, -70.63 55.11 3.52 30
7 06/17/2018 18:11:35 -78.36, 96.75 124.92 06/17/2018 18:12:27 -78.34, 96.84 124.93 2.76 52
8 06/17/2018 19:02:15 78.36, -95.92 55.08 06/17/2018 19:03:23 78.34, -95.87 55.07 2.42 68




NCC Satellite Simultaneous Nadir Overpasses (SNOs) Prediction Service
